Philip, SD (57567)

7:59 PM MST on February 11, 2016 (GMT -0700)
Philip | | Change Station
CLOSE
Current Station
Airport
Location: Philip,
Elevation: 2208 ft
Nearby Weather Stations

Elev 2208 ft 44.05 °N, 101.60 °W | Updated 4 minutes ago

Overcast
Overcast
31 °F
Feels Like 31 °F
N
0
Wind Variable Wind from North

Today
High -- | Low -- °F
--% Chance of Precip.
Yesterday
High -- | Low -- °F
Precip. -- in
Pressure 30.29 in
Visibility 10.0 miles
Clouds Overcast 1200 ft
Dew Point 28 °F
Humidity 89%
Rainfall 0.00 in
Snow Depth Not available.
6:52 AM 5:10 PM
Waxing Crescent, 16% visible
METAR KPHP 120255Z AUTO 00000KT 10SM OVC012 M01/M02 A3023 RMK AO2 SLP257 T10061022 51034
Pressure 30.29 in
Visibility 10.0 miles
Clouds Overcast 1200 ft
Dew Point 28 °F
Humidity 89%
Rainfall 0.00 in
Snow Depth Not available.
6:52 AM 5:10 PM
Waxing Crescent, 16% visible
METAR KPHP 120255Z AUTO 00000KT 10SM OVC012 M01/M02 A3023 RMK AO2 SLP257 T10061022 51034

10-Day Weather Forecast

Almanac

Astronomy

Feb. 11, 2016 Rise Set
Actual Time
Civil Twilight
Nautical Twilight
Astronomical Twilight
Moon
Length of Visible Light
Length of Day
Tomorrow will be .
, % of the Moon is Illuminated

Today's Extremes

State Highs State Lows

Community

WunderPhotos

Upload Photos

1,892,226 photos uploaded!

WunderBlog® & News

Nearby

Air Quality

  Air Quality AQ Index Pollutant
Not available.

Snow Depth

Station Depth Elevation

Earthquake Activity

City Distance Mag. Time & Date
Minimum magnitude displayed is 2.5.

Coastal Water Temperatures

Place Temperature

Stations

Nearby Weather Stations

Station Location Temp. Windchill Dew Point Humidity Wind Precip. Elev Updated Type
                   

Watches & Warnings

There are currently no watches in effect.